M I D A S
Marine Information and Data Acquisition System
Tripno 2329 of the Zeeleeuw from 2012-06-14 04:46:31 to 2012-06-14 15:55:33
Back to CruiseResearch ActivitiesStationsMapUnderway DataData graphs

EquipmentUnitsComments
TimeDGPSUTC
LatitudeDGPSDM.mWGS84
LongitudeDGPSDM.mWGS84
SpeedMeteo Stationm/sRelative wind speed
DirectionMeteo StationdegRelative wind direction
TemperatureMeteo Stationdeg CelciusAir temperature
PressureMeteo StationPaAtmospheric pressure
HumidityMeteo Station%Relative humidity
Missing or incorrect values are displayed as -999
Metereological data collected by the RV Zeeleeuw from 2012-06-14 04:23:01 to 2012-06-14 16:21:26
                                                                                    Next 1000 lines
Time Latitude Longitude Speed Direction Temperature Pressure Humidity
2012-06-14 04:23:12 51°13.635 2°56.014 -999 326 9.6 101930 46
2012-06-14 04:23:17 51°13.635 2°56.014 -999 325 9.6 101930 46
2012-06-14 04:23:21 51°13.635 2°56.014 -999 326 9.6 101930 46
2012-06-14 04:23:25 51°13.635 2°56.014 -999 324 9.6 101930 46
2012-06-14 04:23:31 51°13.635 2°56.014 -999 323 9.6 101930 46
2012-06-14 04:23:36 51°13.635 2°56.014 -999 317 9.6 101930 46
2012-06-14 04:23:42 51°13.635 2°56.014 -999 318 9.6 101930 46
2012-06-14 04:23:45 51°13.635 2°56.014 -999 35 9.6 101930 46
2012-06-14 04:23:52 51°13.635 2°56.014 -999 24 9.6 101930 46
2012-06-14 04:23:57 51°13.635 2°56.013 -999 322 9.6 101930 46
2012-06-14 04:24:01 51°13.635 2°56.013 -999 323 9.7 101930 46
2012-06-14 04:24:05 51°13.635 2°56.013 -999 322 9.7 101930 46
2012-06-14 04:24:12 51°13.635 2°56.013 -999 321 9.7 101930 46
2012-06-14 04:24:17 51°13.635 2°56.013 -999 328 9.7 101930 46
2012-06-14 04:24:21 51°13.635 2°56.013 -999 328 9.6 101930 46
2012-06-14 04:24:26 51°13.635 2°56.013 -999 319 9.6 101930 46
2012-06-14 04:24:31 51°13.635 2°56.013 -999 316 9.6 101920 44
2012-06-14 04:24:37 51°13.635 2°56.013 -999 321 9.6 101920 44
2012-06-14 04:24:42 51°13.635 2°56.013 -999 321 9.7 101930 46
2012-06-14 04:24:46 51°13.634 2°56.013 -999 315 9.7 101930 46
2012-06-14 04:24:51 51°13.633 2°56.013 -999 319 9.6 101930 46
2012-06-14 04:24:56 51°13.633 2°56.013 -999 322 9.6 101930 46
2012-06-14 04:25:01 51°13.633 2°56.013 -999 316 9.6 101930 46
2012-06-14 04:25:06 51°13.633 2°56.012 -999 319 9.6 101930 46
2012-06-14 04:25:10 51°13.633 2°56.012 -999 323 9.6 101920 46
2012-06-14 04:25:16 51°13.633 2°56.013 -999 322 9.6 101920 46
2012-06-14 04:25:21 51°13.633 2°56.013 -999 323 9.7 101930 46
2012-06-14 04:25:26 51°13.632 2°56.012 -999 318 9.7 101930 46
2012-06-14 04:25:30 51°13.632 2°56.012 -999 316 9.6 101930 46
2012-06-14 04:25:35 51°13.632 2°56.012 -999 321 9.6 101930 46
2012-06-14 04:25:40 51°13.632 2°56.012 -999 319 9.7 101920 46
2012-06-14 04:25:45 51°13.632 2°56.012 -999 316 9.7 101920 46
2012-06-14 04:25:50 51°13.632 2°56.012 -999 316 9.6 101920 46
2012-06-14 04:25:55 51°13.633 2°56.013 -999 317 9.6 101920 46
2012-06-14 04:26:01 51°13.633 2°56.012 -999 317 9.7 101930 46
2012-06-14 04:26:06 51°13.633 2°56.013 -999 35 9.7 101930 46
2012-06-14 04:26:11 51°13.633 2°56.013 -999 316 9.6 101930 45
2012-06-14 04:26:16 51°13.634 2°56.013 -999 323 9.6 101930 45
2012-06-14 04:26:22 51°13.634 2°56.013 -999 323 9.6 101930 46
2012-06-14 04:26:27 51°13.635 2°56.013 -999 323 9.6 101930 46
2012-06-14 04:26:31 51°13.635 2°56.013 -999 326 9.7 101930 46
2012-06-14 04:26:36 51°13.635 2°56.013 -999 328 9.7 101930 46
2012-06-14 04:26:41 51°13.635 2°56.013 -999 326 9.7 101930 45
2012-06-14 04:26:46 51°13.635 2°56.014 -999 321 9.7 101930 45
2012-06-14 04:26:51 51°13.635 2°56.013 -999 319 9.7 101930 45
2012-06-14 04:26:56 51°13.636 2°56.013 -999 322 9.7 101930 45
2012-06-14 04:27:01 51°13.636 2°56.014 -999 323 9.7 101920 45
2012-06-14 04:27:06 51°13.636 2°56.014 -999 321 9.7 101920 45
2012-06-14 04:27:11 51°13.636 2°56.014 -999 323 9.7 101930 44
2012-06-14 04:27:16 51°13.635 2°56.013 -999 322 9.7 101930 44
2012-06-14 04:27:21 51°13.635 2°56.014 -999 315 9.7 101920 45
2012-06-14 04:27:27 51°13.635 2°56.014 -999 321 9.7 101920 45
2012-06-14 04:27:32 51°13.633 2°56.013 -999 322 9.7 101920 45
2012-06-14 04:27:36 51°13.632 2°56.013 -999 321 9.7 101920 45
2012-06-14 04:27:41 51°13.632 2°56.013 -999 321 9.7 101930 45
2012-06-14 04:27:46 51°13.633 2°56.013 -999 319 9.7 101930 45
2012-06-14 04:27:51 51°13.633 2°56.013 -999 323 9.7 101920 46
2012-06-14 04:27:56 51°13.632 2°56.013 -999 35 9.7 101920 46
2012-06-14 04:28:02 51°13.632 2°56.013 -999 23 9.7 101920 46
2012-06-14 04:28:07 51°13.632 2°56.012 -999 321 9.7 101920 46
2012-06-14 04:28:11 51°13.632 2°56.012 -999 324 9.7 101920 45
2012-06-14 04:28:17 51°13.632 2°56.012 -999 315 9.7 101920 45
2012-06-14 04:28:21 51°13.632 2°56.012 -999 315 9.7 101930 45
2012-06-14 04:28:27 51°13.632 2°56.012 -999 35 9.7 101930 45
2012-06-14 04:28:32 51°13.632 2°56.012 -999 23 9.7 101930 45
2012-06-14 04:28:36 51°13.632 2°56.012 -999 35 9.7 101930 45
2012-06-14 04:28:41 51°13.632 2°56.012 -999 24 9.7 101920 45
2012-06-14 04:28:46 51°13.633 2°56.013 -999 35 9.7 101920 45
2012-06-14 04:28:51 51°13.633 2°56.012 -999 318 9.7 101920 45
2012-06-14 04:28:56 51°13.633 2°56.012 -999 330 9.7 101920 45
2012-06-14 04:29:01 51°13.633 2°56.012 -999 330 9.7 101920 45
2012-06-14 04:29:05 51°13.633 2°56.012 -999 327 9.7 101920 45
2012-06-14 04:29:11 51°13.633 2°56.012 -999 324 9.7 101920 45
2012-06-14 04:29:17 51°13.633 2°56.012 -999 316 9.7 101920 45
2012-06-14 04:29:22 51°13.633 2°56.012 -999 316 9.7 101920 45
2012-06-14 04:29:26 51°13.633 2°56.012 -999 323 9.7 101920 45
2012-06-14 04:29:31 51°13.634 2°56.012 -999 327 9.7 101920 45
2012-06-14 04:29:37 51°13.634 2°56.012 -999 323 9.7 101920 45
2012-06-14 04:29:40 51°13.634 2°56.012 -999 333 9.7 101920 45
2012-06-14 04:29:46 51°13.634 2°56.012 -999 338 9.7 101920 45
2012-06-14 04:29:51 51°13.634 2°56.012 -999 337 9.7 101930 44
2012-06-14 04:29:56 51°13.634 2°56.012 -999 316 9.7 101930 44
2012-06-14 04:30:01 51°13.634 2°56.012 -999 23 9.7 101920 45
2012-06-14 04:30:06 51°13.634 2°56.012 -999 35 9.7 101920 45
2012-06-14 04:30:10 51°13.634 2°56.012 -999 24 9.8 101920 45
2012-06-14 04:30:16 51°13.634 2°56.012 -999 35 9.8 101920 45
2012-06-14 04:30:22 51°13.634 2°56.012 -999 320 9.8 101920 46
2012-06-14 04:30:27 51°13.634 2°56.013 -999 319 9.8 101920 46
2012-06-14 04:30:31 51°13.634 2°56.013 -999 318 9.8 101920 46
2012-06-14 04:30:36 51°13.634 2°56.012 -999 316 9.8 101920 46
2012-06-14 04:30:42 51°13.634 2°56.011 -999 318 9.8 101920 46
2012-06-14 04:30:46 51°13.634 2°56.012 -999 319 9.8 101920 46
2012-06-14 04:30:51 51°13.634 2°56.012 -999 24 9.8 101920 46
2012-06-14 04:30:56 51°13.634 2°56.012 -999 35 9.8 101920 46
2012-06-14 04:31:01 51°13.634 2°56.013 -999 24 9.8 101920 45
2012-06-14 04:31:06 51°13.633 2°56.013 -999 35 9.8 101920 45
2012-06-14 04:31:11 51°13.634 2°56.012 -999 321 9.8 101920 46
2012-06-14 04:31:16 51°13.634 2°56.012 -999 35 9.8 101920 46
2012-06-14 04:31:20 51°13.633 2°56.011 -999 24 9.8 101920 46
2012-06-14 04:31:26 51°13.634 2°56.011 -999 324 9.8 101920 46
2012-06-14 04:31:32 51°13.634 2°56.011 -999 323 9.8 101930 46
2012-06-14 04:31:37 51°13.634 2°56.011 -999 317 9.8 101930 46
2012-06-14 04:31:41 51°13.633 2°56.011 -999 315 9.8 101920 45
2012-06-14 04:31:46 51°13.634 2°56.011 -999 317 9.8 101920 45
2012-06-14 04:31:51 51°13.634 2°56.011 -999 317 9.8 101920 45
2012-06-14 04:31:56 51°13.634 2°56.011 -999 324 9.8 101920 45
2012-06-14 04:32:01 51°13.634 2°56.011 -999 324 9.8 101920 46
2012-06-14 04:32:06 51°13.634 2°56.011 -999 317 9.8 101920 46
2012-06-14 04:32:12 51°13.634 2°56.012 -999 317 9.8 101920 45
2012-06-14 04:32:17 51°13.634 2°56.012 -999 35 9.8 101920 45
2012-06-14 04:32:22 51°13.634 2°56.013 -999 24 9.8 101920 46
2012-06-14 04:32:26 51°13.635 2°56.013 -999 35 9.8 101920 46
2012-06-14 04:32:31 51°13.635 2°56.013 -999 24 9.8 101920 44
2012-06-14 04:32:36 51°13.634 2°56.013 -999 35 9.8 101920 44
2012-06-14 04:32:41 51°13.635 2°56.013 -999 24 9.8 101920 45
2012-06-14 04:32:46 51°13.635 2°56.013 -999 320 9.8 101920 45
2012-06-14 04:32:50 51°13.635 2°56.013 -999 320 9.9 101920 45
2012-06-14 04:32:56 51°13.634 2°56.013 -999 35 9.9 101920 45
2012-06-14 04:33:01 51°13.634 2°56.014 -999 24 9.9 101920 45
2012-06-14 04:33:06 51°13.634 2°56.014 -999 327 9.9 101920 45
2012-06-14 04:33:10 51°13.634 2°56.014 -999 322 9.9 101920 45
2012-06-14 04:33:17 51°13.635 2°56.014 -999 35 9.9 101920 45
2012-06-14 04:33:21 51°13.635 2°56.014 -999 23 9.9 101920 45
2012-06-14 04:33:26 51°13.634 2°56.014 -999 320 9.9 101920 45
2012-06-14 04:33:31 51°13.634 2°56.014 -999 320 9.9 101930 45
2012-06-14 04:33:36 51°13.635 2°56.014 -999 320 9.9 101930 45
2012-06-14 04:33:41 51°13.635 2°56.014 -999 320 9.9 101930 45
2012-06-14 04:33:46 51°13.635 2°56.014 -999 35 9.9 101930 45
2012-06-14 04:33:51 51°13.634 2°56.014 -999 24 9.9 101920 45
2012-06-14 04:33:56 51°13.634 2°56.014 -999 35 9.9 101920 45
2012-06-14 04:34:01 51°13.634 2°56.014 -999 24 9.9 101930 45
2012-06-14 04:34:06 51°13.634 2°56.014 -999 35 9.9 101930 45
2012-06-14 04:34:11 51°13.634 2°56.014 -999 24 9.9 101920 45
2012-06-14 04:34:15 51°13.634 2°56.014 -999 322 9.9 101920 45
2012-06-14 04:34:21 51°13.634 2°56.014 -999 316 9.9 101920 45
2012-06-14 04:34:26 51°13.634 2°56.014 -999 317 9.9 101920 45
2012-06-14 04:34:31 51°13.634 2°56.014 -999 318 9.9 101920 45
2012-06-14 04:34:36 51°13.634 2°56.015 -999 333 9.9 101920 45
2012-06-14 04:34:41 51°13.634 2°56.015 -999 323 9.9 101930 45
2012-06-14 04:34:46 51°13.633 2°56.014 -999 35 9.9 101930 45
2012-06-14 04:34:51 51°13.632 2°56.014 -999 23 9.9 101920 45
2012-06-14 04:34:56 51°13.631 2°56.013 -999 35 9.9 101920 45
2012-06-14 04:35:01 51°13.631 2°56.013 -999 24 10 101920 45
2012-06-14 04:35:06 51°13.631 2°56.013 -999 35 10 101920 45
2012-06-14 04:35:11 51°13.631 2°56.013 -999 24 10 101920 44
2012-06-14 04:35:16 51°13.631 2°56.013 -999 235 10 101920 44
2012-06-14 04:35:20 51°13.631 2°56.013 -999 24 10 101920 45
2012-06-14 04:35:25 51°13.631 2°56.013 -999 35 10 101920 45
2012-06-14 04:35:31 51°13.631 2°56.013 -999 24 10 101920 45
2012-06-14 04:35:36 51°13.631 2°56.013 -999 35 10 101920 45
2012-06-14 04:35:41 51°13.631 2°56.013 -999 24 10 101920 45
2012-06-14 04:35:46 51°13.631 2°56.013 -999 315 10 101920 45
2012-06-14 04:35:52 51°13.631 2°56.013 -999 321 10 101920 45
2012-06-14 04:35:57 51°13.632 2°56.013 -999 331 10 101920 45
2012-06-14 04:36:01 51°13.632 2°56.014 -999 331 10 101930 45
2012-06-14 04:36:06 51°13.632 2°56.014 -999 35 10 101930 45
2012-06-14 04:36:10 51°13.632 2°56.013 -999 23 10 101920 45
2012-06-14 04:36:16 51°13.631 2°56.013 -999 235 10 101920 45
2012-06-14 04:36:20 51°13.631 2°56.013 -999 24 10 101920 45
2012-06-14 04:36:26 51°13.631 2°56.013 -999 35 10 101920 45
2012-06-14 04:36:30 51°13.631 2°56.013 -999 24 10 101930 45
2012-06-14 04:36:35 51°13.63 2°56.013 -999 236 10 101930 45
2012-06-14 04:36:41 51°13.631 2°56.013 -999 24 10 101920 45
2012-06-14 04:36:46 51°13.631 2°56.013 -999 320 10 101920 45
2012-06-14 04:36:51 51°13.631 2°56.013 -999 24 10 101920 45
2012-06-14 04:36:56 51°13.631 2°56.013 -999 238 10 101920 45
2012-06-14 04:37:02 51°13.631 2°56.013 -999 23 10 101920 45
2012-06-14 04:37:06 51°13.631 2°56.013 -999 317 10 101920 45
2012-06-14 04:37:11 51°13.632 2°56.013 -999 24 10 101920 45
2012-06-14 04:37:16 51°13.631 2°56.013 -999 321 10 101920 45
2012-06-14 04:37:21 51°13.631 2°56.013 -999 320 10 101920 45
2012-06-14 04:37:26 51°13.631 2°56.013 -999 322 10 101920 45
2012-06-14 04:37:31 51°13.631 2°56.013 -999 320 10 101920 45
2012-06-14 04:37:36 51°13.631 2°56.013 -999 35 10 101920 45
2012-06-14 04:37:41 51°13.631 2°56.013 -999 24 10 101920 45
2012-06-14 04:37:46 51°13.631 2°56.013 -999 35 10 101920 45
2012-06-14 04:37:50 51°13.631 2°56.012 -999 24 10.1 101920 44
2012-06-14 04:37:55 51°13.631 2°56.012 -999 35 10.1 101920 44
2012-06-14 04:38:02 51°13.631 2°56.012 -999 24 10 101920 45
2012-06-14 04:38:06 51°13.631 2°56.012 -999 236 10 101920 45
2012-06-14 04:38:11 51°13.631 2°56.013 -999 24 10 101920 45
2012-06-14 04:38:16 51°13.631 2°56.012 -999 35 10 101920 45
2012-06-14 04:38:21 51°13.631 2°56.012 -999 326 10.1 101920 45
2012-06-14 04:38:26 51°13.63 2°56.012 -999 35 10.1 101920 45
2012-06-14 04:38:31 51°13.63 2°56.012 -999 23 10.1 101920 45
2012-06-14 04:38:35 51°13.63 2°56.012 -999 316 10.1 101920 45
2012-06-14 04:38:40 51°13.63 2°56.012 -999 316 10.1 101920 45
2012-06-14 04:38:45 51°13.631 2°56.012 -999 35 10.1 101920 45
2012-06-14 04:38:50 51°13.63 2°56.012 -999 24 10.1 101920 45
2012-06-14 04:38:55 51°13.63 2°56.012 -999 317 10.1 101920 45
2012-06-14 04:39:00 51°13.63 2°56.012 -999 322 10 101920 45
2012-06-14 04:39:05 51°13.63 2°56.012 -999 317 10 101920 45
2012-06-14 04:39:10 51°13.631 2°56.013 -999 23 10.1 101920 45
2012-06-14 04:39:15 51°13.63 2°56.013 -999 35 10.1 101920 45
2012-06-14 04:39:19 51°13.63 2°56.013 -999 24 10.1 101920 45
2012-06-14 04:39:25 51°13.631 2°56.013 -999 35 10.1 101920 45
2012-06-14 04:39:30 51°13.631 2°56.013 -999 24 10 101920 45
2012-06-14 04:39:35 51°13.631 2°56.013 -999 318 10 101920 45
2012-06-14 04:39:40 51°13.631 2°56.013 -999 316 10 101920 45
2012-06-14 04:39:47 51°13.631 2°56.012 -999 35 10 101920 45
2012-06-14 04:39:52 51°13.631 2°56.012 -999 24 10.1 101930 45
2012-06-14 04:39:56 51°13.631 2°56.012 -999 315 10.1 101930 45
2012-06-14 04:40:01 51°13.631 2°56.012 -999 315 10.1 101920 45
2012-06-14 04:40:06 51°13.631 2°56.012 -999 317 10.1 101920 45
2012-06-14 04:40:12 51°13.631 2°56.012 -999 316 10 101920 45
2012-06-14 04:40:16 51°13.631 2°56.012 -999 35 10 101920 45
2012-06-14 04:40:21 51°13.631 2°56.012 -999 24 10 101920 45
2012-06-14 04:40:26 51°13.631 2°56.012 -999 317 10 101920 45
2012-06-14 04:40:31 51°13.631 2°56.012 -999 316 10 101920 43
2012-06-14 04:40:36 51°13.631 2°56.012 -999 35 10 101920 43
2012-06-14 04:40:41 51°13.631 2°56.012 -999 317 10.1 101920 45
2012-06-14 04:40:46 51°13.631 2°56.012 -999 316 10.1 101920 45
2012-06-14 04:40:51 51°13.631 2°56.013 -999 316 10 101920 45
2012-06-14 04:40:56 51°13.631 2°56.013 -999 318 10 101920 45
2012-06-14 04:41:01 51°13.63 2°56.013 -999 316 10 101920 45
2012-06-14 04:41:06 51°13.63 2°56.013 -999 35 10 101920 45
2012-06-14 04:41:10 51°13.63 2°56.013 -999 23 10.1 101920 45
2012-06-14 04:41:16 51°13.63 2°56.013 -999 35 10.1 101920 45
2012-06-14 04:41:21 51°13.63 2°56.013 -999 24 10.1 101920 45
2012-06-14 04:41:25 51°13.63 2°56.013 -999 35 10.1 101920 45
2012-06-14 04:41:30 51°13.63 2°56.013 -999 24 10 101920 45
2012-06-14 04:41:36 51°13.63 2°56.013 -999 317 10 101920 45
2012-06-14 04:41:41 51°13.63 2°56.013 -999 24 10.1 101920 45
2012-06-14 04:41:46 51°13.63 2°56.013 -999 324 10.1 101920 45
2012-06-14 04:41:51 51°13.63 2°56.013 -999 321 10.1 101920 45
2012-06-14 04:41:56 51°13.63 2°56.013 -999 324 10.1 101920 45
2012-06-14 04:42:01 51°13.63 2°56.013 -999 324 10.1 101920 45
2012-06-14 04:42:06 51°13.63 2°56.013 -999 316 10.1 101920 45
2012-06-14 04:42:10 51°13.63 2°56.013 -999 23 10.1 101920 45
2012-06-14 04:42:16 51°13.63 2°56.013 -999 245 10.1 101920 45
2012-06-14 04:42:21 51°13.63 2°56.013 -999 24 10.1 101920 45
2012-06-14 04:42:27 51°13.63 2°56.013 -999 317 10.1 101920 45
2012-06-14 04:42:31 51°13.63 2°56.013 -999 321 10.1 101920 45
2012-06-14 04:42:36 51°13.63 2°56.013 -999 35 10.1 101920 45
2012-06-14 04:42:41 51°13.63 2°56.013 -999 24 10.1 101920 45
2012-06-14 04:42:46 51°13.63 2°56.013 -999 317 10.1 101920 45
2012-06-14 04:42:51 51°13.629 2°56.013 -999 317 10.1 101920 45
2012-06-14 04:42:55 51°13.629 2°56.013 -999 35 10.1 101920 45
2012-06-14 04:43:00 51°13.629 2°56.013 -999 23 10.1 101920 45
2012-06-14 04:43:06 51°13.629 2°56.013 -999 243 10.1 101920 45
2012-06-14 04:43:11 51°13.629 2°56.013 -999 23 10.1 101930 44
2012-06-14 04:43:16 51°13.629 2°56.013 -999 35 10.1 101930 44
2012-06-14 04:43:22 51°13.629 2°56.013 -999 24 10.1 101920 45
2012-06-14 04:43:27 51°13.629 2°56.013 -999 239 10.1 101920 45
2012-06-14 04:43:32 51°13.629 2°56.013 -999 24 10.1 101920 45
2012-06-14 04:43:36 51°13.629 2°56.013 -999 35 10.1 101920 45
2012-06-14 04:43:41 51°13.629 2°56.013 -999 24 10.1 101920 45
2012-06-14 04:43:46 51°13.629 2°56.013 -999 243 10.1 101920 45
2012-06-14 04:43:51 51°13.629 2°56.013 -999 24 10.1 101920 45
2012-06-14 04:43:56 51°13.629 2°56.013 -999 35 10.1 101920 45
2012-06-14 04:44:00 51°13.629 2°56.013 -999 24 10.1 101920 45
2012-06-14 04:44:06 51°13.629 2°56.014 -999 316 10.1 101920 45
2012-06-14 04:44:11 51°13.629 2°56.014 -999 319 10.2 101920 45
2012-06-14 04:44:17 51°13.629 2°56.014 -999 35 10.2 101920 45
2012-06-14 04:44:21 51°13.629 2°56.014 -999 23 10.2 101920 45
2012-06-14 04:44:26 51°13.63 2°56.014 -999 35 10.2 101920 45
2012-06-14 04:44:31 51°13.63 2°56.014 -999 24 10.2 101920 45
2012-06-14 04:44:36 51°13.63 2°56.014 -999 236 10.2 101920 45
2012-06-14 04:44:41 51°13.63 2°56.014 -999 24 10.2 101920 45
2012-06-14 04:44:45 51°13.63 2°56.014 -999 35 10.2 101920 45
2012-06-14 04:44:51 51°13.631 2°56.014 -999 24 10.2 101920 45
2012-06-14 04:44:56 51°13.631 2°56.014 -999 319 10.2 101920 45
2012-06-14 04:45:01 51°13.631 2°56.014 -999 23 10.2 101920 45
2012-06-14 04:45:06 51°13.631 2°56.014 -999 318 10.2 101920 45
2012-06-14 04:45:11 51°13.631 2°56.014 -999 320 10.2 101920 45
2012-06-14 04:45:16 51°13.631 2°56.014 -999 319 10.2 101920 45
2012-06-14 04:45:21 51°13.631 2°56.014 -999 316 10.2 101920 45
2012-06-14 04:45:25 51°13.631 2°56.014 -999 35 10.2 101920 45
2012-06-14 04:45:30 51°13.631 2°56.014 -999 318 10.2 101920 44
2012-06-14 04:45:36 51°13.631 2°56.014 -999 319 10.2 101920 44
2012-06-14 04:45:41 51°13.631 2°56.014 -999 23 10.2 101920 44
2012-06-14 04:45:46 51°13.631 2°56.014 -999 316 10.2 101920 44
2012-06-14 04:45:51 51°13.631 2°56.014 -999 319 10.2 101920 43
2012-06-14 04:45:56 51°13.631 2°56.015 -999 236 10.2 101920 43
2012-06-14 04:46:01 51°13.631 2°56.015 -999 24 10.2 101920 44
2012-06-14 04:46:06 51°13.631 2°56.015 -999 35 10.2 101920 44
2012-06-14 04:46:11 51°13.631 2°56.015 -999 24 10.2 101920 44
2012-06-14 04:46:16 51°13.631 2°56.015 -999 35 10.2 101920 44
2012-06-14 04:46:21 51°13.631 2°56.015 -999 316 10.2 101920 44
2012-06-14 04:46:25 51°13.631 2°56.015 -999 35 10.2 101920 44
2012-06-14 04:46:30 51°13.631 2°56.015 -999 24 10.2 101920 44
2012-06-14 04:46:36 51°13.631 2°56.015 -999 323 10.2 101920 44
2012-06-14 04:46:41 51°13.631 2°56.015 -999 321 10.2 101920 44
2012-06-14 04:46:45 51°13.631 2°56.014 -999 316 10.2 101920 44
2012-06-14 04:46:51 51°13.631 2°56.015 -999 316 10.2 101920 44
2012-06-14 04:46:56 51°13.63 2°56.014 -999 347 10.2 101920 44
2012-06-14 04:47:02 51°13.631 2°56.014 -999 335 10.2 101920 44
2012-06-14 04:47:06 51°13.63 2°56.014 -999 325 10.2 101920 44
2012-06-14 04:47:11 51°13.63 2°56.014 -999 23 10.2 101920 44
2012-06-14 04:47:16 51°13.631 2°56.014 -999 35 10.2 101920 44
2012-06-14 04:47:21 51°13.63 2°56.014 -999 23 10.2 101920 44
2012-06-14 04:47:26 51°13.63 2°56.014 -999 315 10.2 101920 44
2012-06-14 04:47:30 51°13.63 2°56.014 -999 24 10.2 101920 44
2012-06-14 04:47:36 51°13.63 2°56.014 -999 317 10.2 101920 44
2012-06-14 04:47:41 51°13.63 2°56.014 -999 317 10.2 101920 44
2012-06-14 04:47:46 51°13.63 2°56.014 -999 317 10.2 101920 44
2012-06-14 04:47:50 51°13.63 2°56.014 -999 327 10.2 101920 44
2012-06-14 04:47:56 51°13.63 2°56.014 -999 325 10.2 101920 44
2012-06-14 04:48:01 51°13.631 2°56.012 -999 322 10.2 101920 44
2012-06-14 04:48:06 51°13.631 2°56.01 -999 324 10.2 101920 44
2012-06-14 04:48:10 51°13.631 2°56.007 -999 324 10.2 101920 45
2012-06-14 04:48:15 51°13.632 2°56.003 -999 332 10.2 101920 45
2012-06-14 04:48:22 51°13.633 2°55.996 -999 342 10.3 101920 44
2012-06-14 04:48:27 51°13.635 2°55.99 -999 36 10.3 101920 44
2012-06-14 04:48:31 51°13.636 2°55.984 -999 24 10.3 101920 43
2012-06-14 04:48:37 51°13.638 2°55.976 -999 35 10.3 101920 43
2012-06-14 04:48:42 51°13.64 2°55.968 -999 24 10.3 101920 45
2012-06-14 04:48:47 51°13.642 2°55.96 -999 35 10.3 101920 45
2012-06-14 04:48:51 51°13.643 2°55.953 -999 24 10.3 101920 44
2012-06-14 04:48:56 51°13.645 2°55.945 -999 35 10.3 101920 44
2012-06-14 04:49:01 51°13.647 2°55.936 -999 24 10.3 101920 45
2012-06-14 04:49:06 51°13.649 2°55.927 -999 35 10.3 101920 45
2012-06-14 04:49:11 51°13.651 2°55.918 -999 29 10.3 101920 44
2012-06-14 04:49:16 51°13.654 2°55.909 -999 36 10.3 101920 44
2012-06-14 04:49:21 51°13.656 2°55.899 -999 24 10.3 101920 45
2012-06-14 04:49:27 51°13.659 2°55.889 -999 36 10.3 101920 45
2012-06-14 04:49:32 51°13.663 2°55.879 -999 24 10.3 101920 44
2012-06-14 04:49:36 51°13.665 2°55.872 -999 35 10.3 101920 44
2012-06-14 04:49:42 51°13.669 2°55.861 -999 24 10.3 101920 45
2012-06-14 04:49:46 51°13.672 2°55.853 -999 38 10.3 101920 45
2012-06-14 04:49:51 51°13.676 2°55.844 -999 26 10.3 101920 44
2012-06-14 04:49:56 51°13.68 2°55.835 -999 263 10.3 101920 44
2012-06-14 04:50:01 51°13.684 2°55.826 -999 259 10.3 101920 45
2012-06-14 04:50:07 51°13.689 2°55.816 -999 270 10.3 101920 45
2012-06-14 04:50:11 51°13.692 2°55.808 -999 270 10.3 101920 44
2012-06-14 04:50:16 51°13.697 2°55.799 -999 36 10.3 101920 44
2012-06-14 04:50:21 51°13.701 2°55.791 -999 25 10.3 101920 45
2012-06-14 04:50:27 51°13.707 2°55.78 -999 264 10.3 101920 45
2012-06-14 04:50:32 51°13.712 2°55.772 -999 264 10.3 101920 45
2012-06-14 04:50:37 51°13.717 2°55.763 -999 251 10.3 101920 45
2012-06-14 04:50:42 51°13.722 2°55.755 -999 250 10.3 101920 44
2012-06-14 04:50:47 51°13.727 2°55.746 -999 267 10.3 101920 44
2012-06-14 04:50:52 51°13.732 2°55.738 -999 267 10.3 101920 44
2012-06-14 04:50:57 51°13.738 2°55.73 -999 267 10.3 101920 44
2012-06-14 04:51:01 51°13.742 2°55.724 -999 270 10.3 101920 44
2012-06-14 04:51:07 51°13.749 2°55.714 -999 35 10.3 101920 44
2012-06-14 04:51:12 51°13.754 2°55.706 -999 24 10.3 101920 43
2012-06-14 04:51:17 51°13.76 2°55.698 -999 270 10.3 101920 43
2012-06-14 04:51:21 51°13.764 2°55.692 -999 26 10.3 101920 44
2012-06-14 04:51:27 51°13.772 2°55.683 -999 36 10.3 101920 44
2012-06-14 04:51:32 51°13.778 2°55.676 -999 24 10.3 101920 44
2012-06-14 04:51:37 51°13.784 2°55.669 -999 269 10.3 101920 44
2012-06-14 04:51:41 51°13.789 2°55.664 -999 270 10.3 101920 44
2012-06-14 04:51:46 51°13.795 2°55.658 -999 325 10.3 101920 44
2012-06-14 04:51:51 51°13.801 2°55.652 -999 26 10.3 101920 44
2012-06-14 04:51:57 51°13.809 2°55.645 -999 270 10.3 101920 44
2012-06-14 04:52:01 51°13.815 2°55.641 -999 24 10.3 101920 44
2012-06-14 04:52:06 51°13.822 2°55.636 -999 266 10.3 101920 44
2012-06-14 04:52:11 51°13.828 2°55.632 -999 27 10.3 101920 44
2012-06-14 04:52:16 51°13.835 2°55.628 -999 40 10.3 101920 44
2012-06-14 04:52:21 51°13.843 2°55.624 -999 27 10.3 101920 44
2012-06-14 04:52:26 51°13.85 2°55.621 -999 35 10.3 101920 44
2012-06-14 04:52:32 51°13.859 2°55.618 -999 24 10.4 101920 45
2012-06-14 04:52:37 51°13.866 2°55.616 -999 38 10.4 101920 45
2012-06-14 04:52:42 51°13.873 2°55.614 -999 26 10.4 101930 45
2012-06-14 04:52:46 51°13.879 2°55.613 -999 36 10.4 101930 45
2012-06-14 04:52:51 51°13.886 2°55.613 -999 24 10.4 101920 44
2012-06-14 04:52:56 51°13.893 2°55.612 -999 35 10.4 101920 44
2012-06-14 04:53:01 51°13.9 2°55.612 -999 24 10.4 101920 44
2012-06-14 04:53:06 51°13.907 2°55.613 -999 35 10.4 101920 44
2012-06-14 04:53:12 51°13.914 2°55.614 -999 24 10.4 101920 44
2012-06-14 04:53:16 51°13.92 2°55.615 -999 35 10.4 101920 44
2012-06-14 04:53:21 51°13.926 2°55.617 -999 24 10.4 101920 44
2012-06-14 04:53:26 51°13.932 2°55.619 -999 35 10.4 101920 44
2012-06-14 04:53:32 51°13.939 2°55.621 -999 24 10.4 101920 44
2012-06-14 04:53:37 51°13.944 2°55.624 -999 35 10.4 101920 44
2012-06-14 04:53:41 51°13.949 2°55.626 -999 270 10.4 101920 44
2012-06-14 04:53:46 51°13.954 2°55.629 -999 34 10.4 101920 44
2012-06-14 04:53:52 51°13.959 2°55.633 -999 22 10.3 101920 43
2012-06-14 04:53:56 51°13.962 2°55.635 -999 270 10.3 101920 43
2012-06-14 04:54:01 51°13.966 2°55.638 0.1 270 10.4 101920 44
2012-06-14 04:54:06 51°13.969 2°55.64 0.6 35 10.4 101920 44
2012-06-14 04:54:10 51°13.971 2°55.641 0.2 270 10.3 101930 44
2012-06-14 04:54:17 51°13.973 2°55.643 0.1 267 10.3 101930 44
2012-06-14 04:54:22 51°13.974 2°55.643 0.1 269 10.3 101920 43
2012-06-14 04:54:27 51°13.974 2°55.643 -999 267 10.3 101920 43
2012-06-14 04:54:31 51°13.974 2°55.642 -999 29 10.3 101930 44
2012-06-14 04:54:37 51°13.974 2°55.639 0.1 35 10.3 101930 44
2012-06-14 04:54:42 51°13.974 2°55.636 0.6 26 10.3 101920 44
2012-06-14 04:54:46 51°13.974 2°55.634 0.1 35 10.3 101920 44
2012-06-14 04:54:51 51°13.975 2°55.629 0.1 24 10.3 101920 44
2012-06-14 04:54:56 51°13.975 2°55.625 -999 35 10.3 101920 44
2012-06-14 04:55:02 51°13.976 2°55.618 -999 24 10.3 101930 44
2012-06-14 04:55:06 51°13.977 2°55.614 -999 35 10.3 101930 44
2012-06-14 04:55:11 51°13.979 2°55.608 -999 24 10.4 101920 44
2012-06-14 04:55:16 51°13.981 2°55.602 -999 35 10.4 101920 44
2012-06-14 04:55:22 51°13.985 2°55.593 -999 24 10.3 101920 44
2012-06-14 04:55:27 51°13.989 2°55.586 -999 35 10.3 101920 44
2012-06-14 04:55:32 51°13.993 2°55.579 -999 35 10.3 101920 44
2012-06-14 04:55:36 51°13.998 2°55.572 -999 357 10.3 101920 44
2012-06-14 04:55:41 51°14.003 2°55.563 -999 352 10.3 101920 44
2012-06-14 04:55:46 51°14.01 2°55.554 -999 345 10.3 101920 44
2012-06-14 04:55:51 51°14.017 2°55.545 -999 348 10.3 101930 44
2012-06-14 04:55:56 51°14.024 2°55.535 -999 349 10.3 101930 44
2012-06-14 04:56:01 51°14.032 2°55.526 -999 348 10.3 101920 44
2012-06-14 04:56:06 51°14.041 2°55.516 -999 352 10.3 101920 44
2012-06-14 04:56:11 51°14.049 2°55.506 -999 3 10.4 101920 44
2012-06-14 04:56:17 51°14.06 2°55.495 -999 358 10.4 101920 44
2012-06-14 04:56:21 51°14.068 2°55.487 -999 1 10.3 101930 44
2012-06-14 04:56:26 51°14.077 2°55.477 -999 358 10.3 101930 44
2012-06-14 04:56:31 51°14.087 2°55.468 -999 357 10.3 101930 43
2012-06-14 04:56:37 51°14.099 2°55.456 -999 351 10.3 101930 43
2012-06-14 04:56:42 51°14.109 2°55.446 -999 352 10.3 101920 44
2012-06-14 04:56:46 51°14.117 2°55.437 -999 348 10.3 101920 44
2012-06-14 04:56:51 51°14.127 2°55.427 -999 348 10.3 101920 44
2012-06-14 04:56:57 51°14.14 2°55.415 -999 337 10.3 101920 44
2012-06-14 04:57:02 51°14.15 2°55.404 -999 342 10.3 101930 44
2012-06-14 04:57:06 51°14.159 2°55.396 -999 343 10.3 101930 44
2012-06-14 04:57:11 51°14.169 2°55.386 -999 338 10.3 101920 44
2012-06-14 04:57:16 51°14.18 2°55.376 -999 343 10.3 101920 44
2012-06-14 04:57:21 51°14.19 2°55.366 -999 341 10.3 101930 44
2012-06-14 04:57:26 51°14.201 2°55.355 -999 354 10.3 101930 44
2012-06-14 04:57:32 51°14.214 2°55.343 -999 351 10.3 101920 44
2012-06-14 04:57:37 51°14.225 2°55.332 -999 352 10.3 101920 44
2012-06-14 04:57:42 51°14.236 2°55.322 -999 354 10.3 101930 44
2012-06-14 04:57:47 51°14.248 2°55.312 -999 349 10.3 101930 44
2012-06-14 04:57:51 51°14.256 2°55.304 -999 351 10.3 101920 44
2012-06-14 04:57:56 51°14.268 2°55.294 -999 349 10.3 101920 44
2012-06-14 04:58:01 51°14.279 2°55.284 -999 350 10.3 101920 44
2012-06-14 04:58:07 51°14.292 2°55.271 -999 351 10.3 101920 44
2012-06-14 04:58:11 51°14.301 2°55.264 -999 352 10.3 101920 44
2012-06-14 04:58:16 51°14.313 2°55.253 -999 351 10.3 101920 44
2012-06-14 04:58:22 51°14.327 2°55.241 -999 348 10.3 101930 44
2012-06-14 04:58:26 51°14.336 2°55.232 -999 346 10.3 101930 44
2012-06-14 04:58:31 51°14.348 2°55.221 -999 342 10.3 101920 44
2012-06-14 04:58:37 51°14.362 2°55.208 -999 348 10.3 101920 44
2012-06-14 04:58:41 51°14.371 2°55.198 -999 349 10.3 101920 44
2012-06-14 04:58:46 51°14.383 2°55.187 -999 349 10.3 101920 44
2012-06-14 04:58:51 51°14.394 2°55.175 -999 353 10.3 101930 44
2012-06-14 04:58:57 51°14.408 2°55.16 -999 348 10.3 101930 44
2012-06-14 04:59:02 51°14.42 2°55.147 -999 349 10.3 101920 44
2012-06-14 04:59:06 51°14.43 2°55.138 -999 355 10.3 101920 44
2012-06-14 04:59:11 51°14.442 2°55.125 -999 357 10.2 101920 43
2012-06-14 04:59:16 51°14.454 2°55.112 -999 353 10.2 101920 43
2012-06-14 04:59:22 51°14.468 2°55.096 -999 352 10.2 101920 44
2012-06-14 04:59:27 51°14.48 2°55.083 -999 349 10.2 101920 44
2012-06-14 04:59:31 51°14.49 2°55.072 -999 347 10.2 101920 44
2012-06-14 04:59:36 51°14.502 2°55.059 -999 349 10.2 101920 44
2012-06-14 04:59:42 51°14.516 2°55.043 -999 347 10.2 101920 44
2012-06-14 04:59:46 51°14.525 2°55.031 -999 347 10.2 101920 44
2012-06-14 04:59:51 51°14.537 2°55.016 -999 349 10.2 101930 44
2012-06-14 04:59:56 51°14.548 2°55.002 -999 350 10.2 101930 44
2012-06-14 05:00:01 51°14.56 2°54.987 -999 348 10.2 101920 44
2012-06-14 05:00:06 51°14.572 2°54.971 -999 347 10.2 101920 44
2012-06-14 05:00:11 51°14.584 2°54.955 -999 335 10.2 101920 44
2012-06-14 05:00:15 51°14.594 2°54.942 -999 339 10.2 101920 44
2012-06-14 05:00:20 51°14.606 2°54.927 -999 344 10.2 101930 44
2012-06-14 05:00:25 51°14.619 2°54.91 -999 344 10.2 101930 44
2012-06-14 05:00:30 51°14.631 2°54.894 -999 342 10.2 101930 44
2012-06-14 05:00:35 51°14.643 2°54.877 -999 339 10.2 101930 44
2012-06-14 05:00:39 51°14.653 2°54.863 -999 341 10.2 101920 45
2012-06-14 05:00:44 51°14.666 2°54.846 -999 339 10.2 101920 45
2012-06-14 05:00:49 51°14.678 2°54.829 -999 338 10.3 101930 45
2012-06-14 05:00:54 51°14.691 2°54.811 -999 341 10.3 101930 45
2012-06-14 05:00:59 51°14.703 2°54.794 -999 340 10.3 101920 45
2012-06-14 05:01:03 51°14.713 2°54.78 -999 341 10.3 101920 45
2012-06-14 05:01:08 51°14.725 2°54.762 -999 345 10.3 101920 45
2012-06-14 05:01:14 51°14.741 2°54.741 -999 345 10.3 101920 45
2012-06-14 05:01:18 51°14.751 2°54.728 -999 345 10.3 101930 45
2012-06-14 05:01:23 51°14.764 2°54.712 -999 349 10.3 101930 45
2012-06-14 05:01:28 51°14.778 2°54.696 -999 347 10.3 101920 44
2012-06-14 05:01:33 51°14.791 2°54.679 -999 344 10.3 101920 44
2012-06-14 05:01:38 51°14.804 2°54.664 -999 347 10.2 101920 45
2012-06-14 05:01:43 51°14.818 2°54.648 -999 352 10.2 101920 45
2012-06-14 05:01:47 51°14.829 2°54.635 -999 346 10.2 101930 44
2012-06-14 05:01:53 51°14.845 2°54.616 -999 343 10.2 101930 44
2012-06-14 05:01:58 51°14.859 2°54.6 -999 346 10.2 101930 45
2012-06-14 05:02:04 51°14.874 2°54.579 -999 344 10.2 101930 45
2012-06-14 05:02:09 51°14.887 2°54.56 -999 343 10.2 101930 45
2012-06-14 05:02:14 51°14.9 2°54.542 -999 344 10.2 101930 45
2012-06-14 05:02:19 51°14.913 2°54.525 -999 346 10.2 101920 44
2012-06-14 05:02:25 51°14.927 2°54.502 -999 342 10.2 101920 44
2012-06-14 05:02:30 51°14.94 2°54.483 -999 347 10.2 101920 45
2012-06-14 05:02:35 51°14.952 2°54.464 -999 345 10.2 101920 45
2012-06-14 05:02:39 51°14.961 2°54.449 -999 344 10.2 101930 45
2012-06-14 05:02:44 51°14.973 2°54.43 -999 342 10.2 101930 45
2012-06-14 05:02:49 51°14.986 2°54.411 -999 342 10.2 101930 45
2012-06-14 05:02:54 51°14.998 2°54.393 -999 344 10.2 101930 45
2012-06-14 05:02:59 51°15.01 2°54.374 -999 347 10.2 101920 45
2012-06-14 05:03:03 51°15.02 2°54.359 -999 347 10.2 101920 45
2012-06-14 05:03:08 51°15.032 2°54.34 -999 346 10.2 101930 45
2012-06-14 05:03:14 51°15.046 2°54.316 -999 342 10.2 101930 45
2012-06-14 05:03:19 51°15.058 2°54.297 -999 341 10.2 101920 45
2012-06-14 05:03:23 51°15.068 2°54.281 -999 338 10.2 101920 45
2012-06-14 05:03:28 51°15.079 2°54.262 -999 338 10.2 101920 45
2012-06-14 05:03:33 51°15.091 2°54.244 -999 339 10.2 101920 45
2012-06-14 05:03:38 51°15.104 2°54.225 -999 339 10.2 101930 45
2012-06-14 05:03:43 51°15.116 2°54.207 -999 342 10.2 101930 45
2012-06-14 05:03:48 51°15.128 2°54.189 -999 341 10.2 101930 45
2012-06-14 05:03:53 51°15.14 2°54.17 0.1 338 10.2 101930 45
2012-06-14 05:03:58 51°15.152 2°54.151 0.1 338 10.3 101930 46
2012-06-14 05:04:03 51°15.164 2°54.133 0.1 340 10.3 101930 46
2012-06-14 05:04:08 51°15.177 2°54.114 0.1 330 10.3 101930 46
2012-06-14 05:04:13 51°15.189 2°54.096 -999 343 10.3 101930 46
2012-06-14 05:04:18 51°15.201 2°54.078 -999 344 10.3 101930 46
2012-06-14 05:04:23 51°15.213 2°54.06 -999 345 10.3 101930 46
2012-06-14 05:04:28 51°15.226 2°54.044 -999 341 10.3 101920 45
2012-06-14 05:04:33 51°15.239 2°54.027 -999 337 10.3 101920 45
2012-06-14 05:04:38 51°15.252 2°54.01 -999 340 10.4 101930 46
2012-06-14 05:04:43 51°15.265 2°53.993 -999 347 10.4 101930 46
2012-06-14 05:04:48 51°15.278 2°53.977 -999 346 10.4 101930 46
2012-06-14 05:04:53 51°15.291 2°53.961 -999 348 10.4 101930 46
2012-06-14 05:04:58 51°15.304 2°53.944 -999 344 10.4 101930 46
2012-06-14 05:05:03 51°15.317 2°53.928 -999 348 10.4 101930 46
2012-06-14 05:05:08 51°15.331 2°53.913 -999 346 10.4 101930 46
2012-06-14 05:05:13 51°15.344 2°53.896 -999 346 10.4 101930 46
2012-06-14 05:05:18 51°15.357 2°53.88 -999 348 10.4 101930 46
2012-06-14 05:05:23 51°15.371 2°53.866 -999 356 10.4 101930 46
2012-06-14 05:05:27 51°15.382 2°53.854 -999 355 10.4 101920 46
2012-06-14 05:05:33 51°15.399 2°53.836 -999 351 10.4 101920 46
2012-06-14 05:05:38 51°15.413 2°53.821 -999 353 10.4 101920 46
2012-06-14 05:05:43 51°15.426 2°53.807 -999 350 10.4 101920 46
2012-06-14 05:05:47 51°15.438 2°53.795 -999 354 10.5 101920 46
2012-06-14 05:05:53 51°15.455 2°53.778 -999 350 10.5 101920 46
2012-06-14 05:05:58 51°15.469 2°53.764 -999 353 10.5 101920 46
2012-06-14 05:06:03 51°15.483 2°53.751 -999 354 10.5 101920 46
2012-06-14 05:06:08 51°15.497 2°53.735 -999 350 10.5 101920 46
2012-06-14 05:06:13 51°15.51 2°53.721 -999 351 10.5 101920 46
2012-06-14 05:06:18 51°15.524 2°53.706 -999 353 10.5 101920 45
2012-06-14 05:06:23 51°15.538 2°53.693 -999 348 10.5 101920 45
2012-06-14 05:06:27 51°15.549 2°53.681 -999 348 10.5 101930 44
2012-06-14 05:06:33 51°15.566 2°53.664 -999 351 10.5 101930 44
2012-06-14 05:06:38 51°15.58 2°53.65 -999 348 10.5 101920 45
2012-06-14 05:06:43 51°15.594 2°53.636 -999 350 10.5 101920 45
2012-06-14 05:06:48 51°15.608 2°53.622 -999 347 10.6 101930 45
2012-06-14 05:06:53 51°15.623 2°53.608 -999 349 10.6 101930 45
2012-06-14 05:06:58 51°15.637 2°53.595 -999 349 10.6 101920 45
2012-06-14 05:07:03 51°15.651 2°53.58 -999 355 10.6 101920 45
2012-06-14 05:07:08 51°15.665 2°53.566 -999 354 10.6 101920 43
2012-06-14 05:07:13 51°15.68 2°53.552 -999 352 10.6 101920 43
2012-06-14 05:07:18 51°15.694 2°53.538 -999 354 10.7 101920 45
2012-06-14 05:07:23 51°15.708 2°53.524 -999 352 10.7 101920 45
2012-06-14 05:07:28 51°15.723 2°53.51 -999 349 10.7 101930 45
2012-06-14 05:07:33 51°15.737 2°53.497 -999 349 10.7 101930 45
2012-06-14 05:07:38 51°15.751 2°53.483 -999 349 10.7 101920 44
2012-06-14 05:07:43 51°15.765 2°53.469 -999 350 10.7 101920 44
2012-06-14 05:07:48 51°15.78 2°53.456 -999 349 10.7 101930 45
2012-06-14 05:07:53 51°15.793 2°53.441 -999 354 10.7 101930 45
2012-06-14 05:07:58 51°15.808 2°53.428 -999 351 10.7 101920 44
2012-06-14 05:08:03 51°15.822 2°53.414 -999 351 10.7 101920 44
2012-06-14 05:08:08 51°15.837 2°53.4 -999 351 10.8 101930 44
2012-06-14 05:08:13 51°15.851 2°53.386 -999 355 10.8 101930 44
2012-06-14 05:08:18 51°15.865 2°53.372 -999 353 10.8 101930 44
2012-06-14 05:08:23 51°15.879 2°53.358 -999 354 10.8 101930 44
2012-06-14 05:08:27 51°15.891 2°53.347 -999 355 10.8 101930 44
2012-06-14 05:08:33 51°15.907 2°53.331 -999 349 10.8 101930 44
2012-06-14 05:08:38 51°15.922 2°53.318 -999 351 10.8 101930 44
2012-06-14 05:08:43 51°15.937 2°53.304 -999 350 10.8 101930 44
2012-06-14 05:08:48 51°15.952 2°53.291 -999 348 10.8 101920 44
2012-06-14 05:08:53 51°15.966 2°53.278 -999 350 10.8 101920 44
2012-06-14 05:08:58 51°15.98 2°53.265 -999 349 10.8 101930 44
2012-06-14 05:09:03 51°15.995 2°53.251 -999 351 10.8 101930 44
2012-06-14 05:09:08 51°16.009 2°53.238 -999 351 10.9 101920 45
2012-06-14 05:09:13 51°16.024 2°53.225 -999 353 10.9 101920 45
2012-06-14 05:09:18 51°16.038 2°53.212 -999 353 10.9 101930 45
2012-06-14 05:09:23 51°16.052 2°53.2 -999 350 10.9 101930 45
2012-06-14 05:09:28 51°16.067 2°53.188 -999 354 10.9 101920 44
2012-06-14 05:09:33 51°16.082 2°53.176 -999 349 10.9 101920 44
2012-06-14 05:09:38 51°16.096 2°53.165 -999 353 10.9 101920 45
2012-06-14 05:09:43 51°16.111 2°53.154 -999 355 10.9 101920 45
2012-06-14 05:09:47 51°16.124 2°53.145 -999 355 11 101920 43
2012-06-14 05:09:53 51°16.142 2°53.133 -999 351 11 101920 43
2012-06-14 05:09:58 51°16.157 2°53.124 -999 356 10.9 101920 44
2012-06-14 05:10:03 51°16.172 2°53.114 -999 349 10.9 101920 44
2012-06-14 05:10:08 51°16.187 2°53.105 -999 352 10.9 101920 44
2012-06-14 05:10:13 51°16.203 2°53.096 -999 352 10.9 101920 44
2012-06-14 05:10:18 51°16.218 2°53.086 -999 353 11 101930 43
2012-06-14 05:10:23 51°16.233 2°53.077 -999 351 11 101930 43
2012-06-14 05:10:28 51°16.248 2°53.067 -999 354 11 101930 45
2012-06-14 05:10:33 51°16.264 2°53.058 -999 353 11 101930 45
2012-06-14 05:10:38 51°16.278 2°53.049 -999 355 11 101920 45
2012-06-14 05:10:43 51°16.293 2°53.04 -999 355 11 101920 45
2012-06-14 05:10:48 51°16.308 2°53.03 -999 352 11 101920 45
2012-06-14 05:10:53 51°16.323 2°53.02 -999 353 11 101920 45
2012-06-14 05:10:58 51°16.339 2°53.011 -999 357 11 101920 45
2012-06-14 05:11:03 51°16.354 2°53.001 0.1 353 11 101920 45
2012-06-14 05:11:08 51°16.37 2°52.992 0.1 356 11.1 101920 45
2012-06-14 05:11:13 51°16.385 2°52.982 0.1 353 11.1 101920 45
2012-06-14 05:11:18 51°16.4 2°52.973 -999 355 11.1 101920 45
2012-06-14 05:11:23 51°16.416 2°52.965 -999 353 11.1 101920 45
2012-06-14 05:11:28 51°16.431 2°52.955 -999 351 11.1 101920 45
2012-06-14 05:11:33 51°16.447 2°52.947 3.1 354 11.1 101920 45
2012-06-14 05:11:38 51°16.462 2°52.939 3.7 358 11.1 101920 45
2012-06-14 05:11:43 51°16.477 2°52.93 3.8 358 11.1 101920 45
2012-06-14 05:11:48 51°16.493 2°52.921 2.2 356 11.1 101930 44
2012-06-14 05:11:53 51°16.508 2°52.911 0.1 358 11.1 101930 44
2012-06-14 05:11:58 51°16.523 2°52.902 0.1 357 11.1 101920 45
2012-06-14 05:12:03 51°16.538 2°52.892 -999 360 11.1 101920 45
2012-06-14 05:12:07 51°16.55 2°52.884 -999 1 11.1 101910 45
2012-06-14 05:12:13 51°16.569 2°52.872 -999 359 11.1 101910 45
2012-06-14 05:12:18 51°16.583 2°52.863 -999 352 11.1 101910 44
2012-06-14 05:12:23 51°16.598 2°52.853 -999 355 11.1 101910 44
2012-06-14 05:12:27 51°16.61 2°52.844 -999 354 11.1 101910 43
2012-06-14 05:12:33 51°16.627 2°52.83 -999 358 11.1 101910 43
2012-06-14 05:12:38 51°16.641 2°52.818 -999 360 11.1 101920 44
2012-06-14 05:12:43 51°16.656 2°52.806 -999 357 11.1 101920 44
2012-06-14 05:12:48 51°16.67 2°52.794 -999 -999 11.2 101920 45
2012-06-14 05:12:53 51°16.684 2°52.782 -999 351 11.2 101920 45
2012-06-14 05:12:58 51°16.698 2°52.769 -999 356 11.1 101920 43
2012-06-14 05:13:03 51°16.712 2°52.757 -999 359 11.1 101920 43
2012-06-14 05:13:08 51°16.726 2°52.745 -999 357 11.2 101920 44
2012-06-14 05:13:13 51°16.74 2°52.732 -999 357 11.2 101920 44
2012-06-14 05:13:18 51°16.753 2°52.72 -999 1 11.1 101910 44
2012-06-14 05:13:23 51°16.767 2°52.708 -999 1 11.1 101910 44
2012-06-14 05:13:28 51°16.781 2°52.696 -999 359 11.2 101920 44
2012-06-14 05:13:33 51°16.796 2°52.685 -999 358 11.2 101920 44
2012-06-14 05:13:38 51°16.81 2°52.674 -999 357 11.2 101910 44
2012-06-14 05:13:43 51°16.824 2°52.664 -999 -999 11.2 101910 44
2012-06-14 05:13:48 51°16.839 2°52.654 -999 355 11.2 101930 44
2012-06-14 05:13:53 51°16.853 2°52.645 -999 360 11.2 101930 44
2012-06-14 05:13:58 51°16.869 2°52.636 -999 357 11.2 101920 44
2012-06-14 05:14:03 51°16.883 2°52.628 -999 354 11.2 101920 44
2012-06-14 05:14:08 51°16.897 2°52.619 -999 358 11.3 101920 45
2012-06-14 05:14:13 51°16.912 2°52.609 -999 355 11.3 101920 45
2012-06-14 05:14:18 51°16.927 2°52.599 -999 355 11.2 101920 44
2012-06-14 05:14:23 51°16.941 2°52.588 -999 357 11.2 101920 44
2012-06-14 05:14:27 51°16.952 2°52.58 -999 357 11.3 101910 44
2012-06-14 05:14:33 51°16.969 2°52.567 -999 353 11.3 101910 44
2012-06-14 05:14:38 51°16.983 2°52.556 -999 356 11.3 101920 44
2012-06-14 05:14:43 51°16.997 2°52.544 -999 357 11.3 101920 44
2012-06-14 05:14:48 51°17.011 2°52.532 -999 355 11.3 101920 44
2012-06-14 05:14:53 51°17.025 2°52.522 -999 359 11.3 101920 44
2012-06-14 05:14:58 51°17.039 2°52.511 -999 357 11.3 101920 44
2012-06-14 05:15:03 51°17.054 2°52.5 -999 357 11.3 101920 44
2012-06-14 05:15:08 51°17.068 2°52.49 -999 354 11.3 101920 43
2012-06-14 05:15:13 51°17.082 2°52.479 -999 357 11.3 101920 43
2012-06-14 05:15:18 51°17.096 2°52.468 -999 357 11.3 101910 44
2012-06-14 05:15:23 51°17.111 2°52.458 -999 355 11.3 101910 44
2012-06-14 05:15:27 51°17.122 2°52.45 -999 357 11.3 101920 44
2012-06-14 05:15:33 51°17.139 2°52.436 -999 357 11.3 101920 44
2012-06-14 05:15:38 51°17.153 2°52.426 -999 355 11.3 101910 42
2012-06-14 05:15:43 51°17.167 2°52.415 -999 1 11.3 101910 42
2012-06-14 05:15:48 51°17.182 2°52.405 -999 4 11.3 101920 44
2012-06-14 05:15:53 51°17.196 2°52.394 -999 5 11.3 101920 44
2012-06-14 05:15:58 51°17.21 2°52.384 -999 359 11.4 101910 45
2012-06-14 05:16:03 51°17.225 2°52.375 0.6 359 11.4 101910 45
2012-06-14 05:16:08 51°17.239 2°52.365 0.2 1 11.3 101920 44
2012-06-14 05:16:13 51°17.253 2°52.356 2.4 357 11.3 101920 44
2012-06-14 05:16:18 51°17.268 2°52.347 0.4 359 11.4 101920 44
2012-06-14 05:16:23 51°17.283 2°52.339 0.1 1 11.4 101920 44
2012-06-14 05:16:27 51°17.295 2°52.334 0.1 357 11.4 101920 44
2012-06-14 05:16:33 51°17.312 2°52.326 -999 358 11.4 101920 44
2012-06-14 05:16:38 51°17.328 2°52.32 -999 359 11.4 101920 43
2012-06-14 05:16:43 51°17.343 2°52.315 -999 356 11.4 101920 43
2012-06-14 05:16:47 51°17.355 2°52.311 5.2 358 11.4 101920 43
2012-06-14 05:16:53 51°17.374 2°52.306 5 357 11.4 101920 43
2012-06-14 05:16:58 51°17.389 2°52.302 4.9 359 11.4 101910 44
2012-06-14 05:17:03 51°17.404 2°52.298 4.4 356 11.4 101910 44
2012-06-14 05:17:07 51°17.417 2°52.296 3.5 358 11.4 101910 43
2012-06-14 05:17:13 51°17.435 2°52.292 4.5 357 11.4 101910 43
2012-06-14 05:17:18 51°17.451 2°52.289 3.5 356 11.4 101910 44
2012-06-14 05:17:23 51°17.466 2°52.287 0.2 356 11.4 101910 44
2012-06-14 05:17:28 51°17.482 2°52.285 0.1 357 11.4 101910 42
2012-06-14 05:17:33 51°17.497 2°52.283 -999 356 11.4 101910 42
2012-06-14 05:17:38 51°17.513 2°52.281 5 354 11.4 101910 42
2012-06-14 05:17:43 51°17.528 2°52.278 3.8 356 11.4 101910 42
2012-06-14 05:17:48 51°17.544 2°52.276 3.2 357 11.4 101910 42
2012-06-14 05:17:53 51°17.559 2°52.272 3.3 355 11.4 101910 42
2012-06-14 05:17:58 51°17.574 2°52.269 0.4 -999 11.5 101910 43
2012-06-14 05:18:03 51°17.589 2°52.266 2.2 2 11.5 101910 43
2012-06-14 05:18:08 51°17.605 2°52.262 2.9 2 11.5 101910 43
2012-06-14 05:18:13 51°17.62 2°52.258 4.7 357 11.5 101910 43
2012-06-14 05:18:18 51°17.635 2°52.254 3 360 11.5 101910 42
2012-06-14 05:18:23 51°17.651 2°52.25 3.8 359 11.5 101910 42
2012-06-14 05:18:28 51°17.666 2°52.245 4.8 357 11.6 101910 45
2012-06-14 05:18:33 51°17.681 2°52.24 2.5 359 11.6 101910 45
2012-06-14 05:18:38 51°17.696 2°52.235 3.9 356 11.5 101910 44
2012-06-14 05:18:43 51°17.711 2°52.23 1.9 2 11.5 101910 44
2012-06-14 05:18:47 51°17.723 2°52.225 1.2 -999 11.5 101920 43
2012-06-14 05:18:53 51°17.742 2°52.218 0.5 4 11.5 101920 43
2012-06-14 05:18:58 51°17.757 2°52.212 0.2 1 11.5 101910 43
2012-06-14 05:19:03 51°17.772 2°52.205 0.9 357 11.5 101910 43
2012-06-14 05:19:07 51°17.784 2°52.2 0.3 -999 11.5 101910 43
2012-06-14 05:19:13 51°17.802 2°52.191 0.7 357 11.5 101910 43
2012-06-14 05:19:18 51°17.817 2°52.185 0.4 353 11.5 101910 43
2012-06-14 05:19:23 51°17.832 2°52.179 0.1 358 11.5 101910 43
2012-06-14 05:19:28 51°17.847 2°52.172 0.1 358 11.5 101910 43
2012-06-14 05:19:33 51°17.863 2°52.166 -999 354 11.5 101910 43
2012-06-14 05:19:38 51°17.878 2°52.161 -999 354 11.6 101920 43
2012-06-14 05:19:43 51°17.893 2°52.155 -999 358 11.6 101920 43
2012-06-14 05:19:48 51°17.909 2°52.149 -999 358 11.6 101910 44
2012-06-14 05:19:53 51°17.924 2°52.143 -999 2 11.6 101910 44
2012-06-14 05:19:58 51°17.939 2°52.138 -999 -999 11.6 101910 44
2012-06-14 05:20:03 51°17.955 2°52.133 -999 358 11.6 101910 44
2012-06-14 05:20:07 51°17.967 2°52.128 -999 359 11.6 101910 44
2012-06-14 05:20:13 51°17.985 2°52.122 -999 360 11.6 101910 44
2012-06-14 05:20:18 51°18.001 2°52.117 -999 358 11.6 101910 42
2012-06-14 05:20:23 51°18.016 2°52.112 -999 1 11.6 101910 42
2012-06-14 05:20:28 51°18.032 2°52.107 -999 1 11.6 101910 39
2012-06-14 05:20:33 51°18.047 2°52.103 -999 1 11.6 101910 39
2012-06-14 05:20:38 51°18.063 2°52.098 -999 359 11.6 101910 41
2012-06-14 05:20:43 51°18.078 2°52.094 -999 358 11.6 101910 41
2012-06-14 05:20:48 51°18.094 2°52.09 -999 3 11.6 101910 41
2012-06-14 05:20:53 51°18.109 2°52.086 -999 2 11.6 101910 41
2012-06-14 05:20:58 51°18.125 2°52.082 -999 358 11.6 101910 39
2012-06-14 05:21:03 51°18.14 2°52.078 -999 358 11.6 101910 39
2012-06-14 05:21:07 51°18.153 2°52.075 -999 356 11.6 101900 42
2012-06-14 05:21:13 51°18.171 2°52.07 -999 360 11.6 101900 42
2012-06-14 05:21:18 51°18.187 2°52.066 -999 358 11.6 101910 41
2012-06-14 05:21:23 51°18.203 2°52.063 -999 357 11.6 101910 41
2012-06-14 05:21:28 51°18.218 2°52.059 -999 357 11.7 101910 41
2012-06-14 05:21:33 51°18.233 2°52.055 -999 4 11.7 101910 41
2012-06-14 05:21:38 51°18.249 2°52.05 -999 1 11.7 101910 41
2012-06-14 05:21:43 51°18.264 2°52.047 -999 360 11.7 101910 41
2012-06-14 05:21:48 51°18.28 2°52.043 -999 4 11.7 101920 42
2012-06-14 05:21:53 51°18.295 2°52.039 -999 3 11.7 101920 42
2012-06-14 05:21:58 51°18.311 2°52.035 -999 359 11.7 101910 41
2012-06-14 05:22:03 51°18.327 2°52.031 -999 1 11.7 101910 41
2012-06-14 05:22:08 51°18.342 2°52.027 -999 359 11.6 101900 41
2012-06-14 05:22:13 51°18.358 2°52.023 3.8 359 11.6 101900 41
2012-06-14 05:22:18 51°18.373 2°52.019 4.5 359 11.6 101910 41
2012-06-14 05:22:23 51°18.389 2°52.014 4.1 356 11.6 101910 41
2012-06-14 05:22:28 51°18.405 2°52.01 3.4 357 11.6 101920 41
2012-06-14 05:22:33 51°18.42 2°52.006 2 358 11.6 101920 41
2012-06-14 05:22:38 51°18.436 2°52.003 2.7 358 11.7 101910 41
2012-06-14 05:22:43 51°18.452 2°51.999 1.7 359 11.7 101910 41
2012-06-14 05:22:48 51°18.467 2°51.995 2.3 359 11.7 101920 41
2012-06-14 05:22:53 51°18.483 2°51.992 1.5 1 11.7 101920 41
2012-06-14 05:22:58 51°18.499 2°51.988 1.6 356 11.6 101910 41
2012-06-14 05:23:03 51°18.515 2°51.984 1.5 357 11.6 101910 41
2012-06-14 05:23:08 51°18.53 2°51.98 1.2 356 11.6 101910 39
2012-06-14 05:23:13 51°18.547 2°51.977 0.1 -999 11.6 101910 39
2012-06-14 05:23:18 51°18.563 2°51.973 0.1 355 11.6 101910 41
2012-06-14 05:23:23 51°18.578 2°51.969 0.9 1 11.6 101910 41
2012-06-14 05:23:27 51°18.591 2°51.964 1.2 359 11.7 101910 42
2012-06-14 05:23:33 51°18.61 2°51.958 0.3 -999 11.7 101910 42
2012-06-14 05:23:38 51°18.625 2°51.952 0.7 359 11.7 101910 40
2012-06-14 05:23:43 51°18.64 2°51.945 1 4 11.7 101910 40
2012-06-14 05:23:48 51°18.656 2°51.94 1.2 4 11.7 101910 41
2012-06-14 05:23:53 51°18.672 2°51.934 0.8 4 11.7 101910 41
2012-06-14 05:23:58 51°18.687 2°51.927 1.3 -999 11.6 101910 41
2012-06-14 05:24:03 51°18.703 2°51.922 1.8 5 11.6 101910 41
2012-06-14 05:24:07 51°18.715 2°51.916 1.8 5 11.7 101910 41
2012-06-14 05:24:13 51°18.734 2°51.908 0.2 3 11.7 101910 41
2012-06-14 05:24:18 51°18.749 2°51.901 0.1 5 11.7 101920 41
2012-06-14 05:24:23 51°18.765 2°51.894 0.2 5 11.7 101920 41
2012-06-14 05:24:28 51°18.78 2°51.888 0.1 5 11.6 101910 40
2012-06-14 05:24:33 51°18.795 2°51.881 0.1 5 11.6 101910 40
2012-06-14 05:24:38 51°18.811 2°51.876 -999 360 11.6 101910 41
2012-06-14 05:24:43 51°18.827 2°51.87 -999 2 11.6 101910 41
2012-06-14 05:24:48 51°18.842 2°51.864 3.4 1 11.7 101910 42
2012-06-14 05:24:53 51°18.858 2°51.859 3.7 359 11.7 101910 42
2012-06-14 05:24:58 51°18.874 2°51.855 4.3 360 11.7 101910 41
2012-06-14 05:25:03 51°18.889 2°51.851 3.2 1 11.7 101910 41
2012-06-14 05:25:08 51°18.905 2°51.848 4 355 11.7 101910 40
2012-06-14 05:25:13 51°18.921 2°51.843 4.5 359 11.7 101910 40
2012-06-14 05:25:18 51°18.937 2°51.84 4.1 -999 11.7 101910 41
2012-06-14 05:25:23 51°18.953 2°51.836 3.9 2 11.7 101910 41
2012-06-14 05:25:28 51°18.969 2°51.833 3.2 1 11.7 101910 40
2012-06-14 05:25:33 51°18.984 2°51.83 3.4 2 11.7 101910 40
2012-06-14 05:25:38 51°19 2°51.827 4.4 1 11.7 101920 41
2012-06-14 05:25:43 51°19.016 2°51.825 2.2 356 11.7 101920 41
2012-06-14 05:25:47 51°19.029 2°51.823 0.8 360 11.7 101910 39
2012-06-14 05:25:53 51°19.048 2°51.821 1.8 356 11.7 101910 39
2012-06-14 05:25:58 51°19.064 2°51.819 1.8 -999 11.7 101910 41
2012-06-14 05:26:03 51°19.08 2°51.817 3.5 359 11.7 101910 41
2012-06-14 05:26:08 51°19.096 2°51.816 3.3 359 11.8 101910 42
2012-06-14 05:26:13 51°19.112 2°51.814 5.5 -999 11.8 101910 42
2012-06-14 05:26:18 51°19.127 2°51.813 5.6 -999 11.8 101910 40
2012-06-14 05:26:23 51°19.144 2°51.812 4.6 2 11.8 101910 40
2012-06-14 05:26:28 51°19.16 2°51.811 5.5 356 11.8 101910 42
2012-06-14 05:26:33 51°19.176 2°51.81 4.6 -999 11.8 101910 42
2012-06-14 05:26:38 51°19.192 2°51.808 4.8 359 11.8 101910 41
2012-06-14 05:26:43 51°19.207 2°51.806 3.9 359 11.8 101910 41
2012-06-14 05:26:47 51°19.221 2°51.804 4.2 358 11.7 101910 40
2012-06-14 05:26:53 51°19.24 2°51.802 4 359 11.7 101910 40
2012-06-14 05:26:58 51°19.256 2°51.8 5.4 -999 11.7 101910 41
2012-06-14 05:27:03 51°19.271 2°51.797 3.6 359 11.7 101910 41
2012-06-14 05:27:08 51°19.287 2°51.795 2.6 -999 11.7 101910 40
2012-06-14 05:27:13 51°19.304 2°51.794 2.4 359 11.7 101910 40
2012-06-14 05:27:18 51°19.32 2°51.794 4.6 359 11.7 101910 41
2012-06-14 05:27:23 51°19.336 2°51.793 2.8 -999 11.7 101910 41
2012-06-14 05:27:28 51°19.352 2°51.792 2.8 359 11.7 101910 40
2012-06-14 05:27:33 51°19.368 2°51.792 2.2 357 11.7 101910 40
2012-06-14 05:27:38 51°19.385 2°51.791 3.1 359 11.7 101910 40
2012-06-14 05:27:43 51°19.4 2°51.79 3.2 357 11.7 101910 40
2012-06-14 05:27:48 51°19.416 2°51.788 2.1 358 11.7 101910 40
2012-06-14 05:27:53 51°19.432 2°51.787 4 359 11.7 101910 40
2012-06-14 05:27:58 51°19.449 2°51.787 2 357 11.7 101910 40
2012-06-14 05:28:03 51°19.465 2°51.785 4 358 11.7 101910 40
2012-06-14 05:28:07 51°19.477 2°51.784 4.2 354 11.7 101920 41
2012-06-14 05:28:13 51°19.497 2°51.783 4.1 357 11.7 101920 41
2012-06-14 05:28:18 51°19.513 2°51.781 4.6 359 11.8 101920 40
2012-06-14 05:28:23 51°19.529 2°51.779 3 -999 11.8 101920 40
2012-06-14 05:28:27 51°19.541 2°51.776 4.4 359 11.8 101910 39
2012-06-14 05:28:33 51°19.561 2°51.772 2.7 356 11.8 101910 39
2012-06-14 05:28:38 51°19.577 2°51.769 1.3 356 11.8 101910 40
2012-06-14 05:28:43 51°19.593 2°51.766 0.2 3 11.8 101910 40
2012-06-14 05:28:48 51°19.609 2°51.762 0.1 1 11.8 101910 40
2012-06-14 05:28:53 51°19.625 2°51.759 2.6 -999 11.8 101910 40
2012-06-14 05:28:58 51°19.64 2°51.756 2 1 11.7 101920 39
2012-06-14 05:29:03 51°19.656 2°51.753 0.1 358 11.7 101920 39
2012-06-14 05:29:08 51°19.673 2°51.75 0.1 1 11.8 101920 41
2012-06-14 05:29:13 51°19.689 2°51.747 2.3 358 11.8 101920 41
2012-06-14 05:29:18 51°19.705 2°51.745 1.8 355 11.8 101910 41
2012-06-14 05:29:23 51°19.721 2°51.743 2.2 357 11.8 101910 41
2012-06-14 05:29:28 51°19.737 2°51.739 1.9 357 11.8 101920 41
2012-06-14 05:29:33 51°19.753 2°51.735 4.2 358 11.8 101920 41
2012-06-14 05:29:38 51°19.769 2°51.731 0.7 360 11.8 101920 42
2012-06-14 05:29:43 51°19.785 2°51.726 1.1 1 11.8 101920 42
2012-06-14 05:29:48 51°19.8 2°51.723 0.3 359 11.8 101910 41
2012-06-14 05:29:53 51°19.816 2°51.719 0.1 -999 11.8 101910 41
2012-06-14 05:29:58 51°19.832 2°51.714 0.1 2 11.8 101910 41
2012-06-14 05:30:03 51°19.848 2°51.709 -999 357 11.8 101910 41
2012-06-14 05:30:08 51°19.864 2°51.705 -999 355 11.8 101930 41
2012-06-14 05:30:13 51°19.88 2°51.7 -999 1 11.8 101930 41
2012-06-14 05:30:18 51°19.896 2°51.696 0.1 3 11.8 101920 41
2012-06-14 05:30:23 51°19.912 2°51.692 0.1 -999 11.8 101920 41
2012-06-14 05:30:27 51°19.924 2°51.688 0.1 2 11.8 101920 42
2012-06-14 05:30:33 51°19.944 2°51.682 -999 355 11.8 101920 42
2012-06-14 05:30:38 51°19.959 2°51.678 -999 355 11.9 101920 42
2012-06-14 05:30:43 51°19.975 2°51.676 -999 356 11.9 101920 42
2012-06-14 05:30:47 51°19.988 2°51.674 -999 355 11.8 101910 41
2012-06-14 05:30:53 51°20.007 2°51.671 -999 354 11.8 101910 41
2012-06-14 05:30:58 51°20.023 2°51.67 -999 357 11.8 101920 41
2012-06-14 05:31:03 51°20.039 2°51.669 -999 357 11.8 101920 41
2012-06-14 05:31:08 51°20.055 2°51.669 -999 359 11.8 101910 39
2012-06-14 05:31:13 51°20.07 2°51.669 -999 360 11.8 101910 39
2012-06-14 05:31:18 51°20.086 2°51.668 -999 357 11.8 101910 40
2012-06-14 05:31:23 51°20.102 2°51.667 -999 2 11.8 101910 40
2012-06-14 05:31:28 51°20.118 2°51.666 -999 -999 11.8 101910 40
2012-06-14 05:31:33 51°20.134 2°51.665 -999 357 11.8 101910 40
2012-06-14 05:31:38 51°20.15 2°51.664 -999 360 11.8 101920 39
2012-06-14 05:31:43 51°20.166 2°51.663 -999 357 11.8 101920 39
2012-06-14 05:31:48 51°20.181 2°51.662 -999 356 11.8 101910 40
2012-06-14 05:31:53 51°20.197 2°51.661 -999 356 11.8 101910 40
2012-06-14 05:31:58 51°20.213 2°51.659 -999 357 11.8 101920 41
2012-06-14 05:32:03 51°20.228 2°51.658 -999 358 11.8 101920 41
2012-06-14 05:32:08 51°20.244 2°51.657 -999 353 11.8 101920 40
2012-06-14 05:32:13 51°20.259 2°51.657 -999 359 11.8 101920 40
2012-06-14 05:32:18 51°20.275 2°51.656 -999 356 11.9 101920 41
2012-06-14 05:32:23 51°20.29 2°51.655 -999 357 11.9 101920 41
2012-06-14 05:32:27 51°20.303 2°51.655 -999 358 11.9 101920 41
2012-06-14 05:32:33 51°20.322 2°51.654 -999 359 11.9 101920 41
2012-06-14 05:32:38 51°20.337 2°51.654 -999 356 11.9 101920 40
2012-06-14 05:32:43 51°20.353 2°51.655 -999 358 11.9 101920 40
2012-06-14 05:32:48 51°20.369 2°51.655 -999 356 11.9 101910 40
2012-06-14 05:32:53 51°20.385 2°51.655 3.9 356 11.9 101910 40
2012-06-14 05:32:58 51°20.4 2°51.656 3.9 360 11.9 101920 40
2012-06-14 05:33:03 51°20.416 2°51.656 4.2 355 11.9 101920 40
2012-06-14 05:33:08 51°20.432 2°51.657 3 357 11.9 101910 40
2012-06-14 05:33:13 51°20.447 2°51.658 0.3 359 11.9 101910 40
2012-06-14 05:33:18 51°20.463 2°51.659 0.1 360 11.9 101910 40
2012-06-14 05:33:23 51°20.479 2°51.66 0.1 357 11.9 101910 40
2012-06-14 05:33:28 51°20.494 2°51.66 -999 3 11.9 101910 41
2012-06-14 05:33:33 51°20.51 2°51.661 -999 359 11.9 101910 41
2012-06-14 05:33:38 51°20.526 2°51.661 -999 357 11.9 101910 40
2012-06-14 05:33:43 51°20.541 2°51.663 -999 355 11.9 101910 40
2012-06-14 05:33:48 51°20.557 2°51.663 -999 357 11.9 101910 41
2012-06-14 05:33:53 51°20.573 2°51.664 -999 359 11.9 101910 41
2012-06-14 05:33:58 51°20.589 2°51.663 -999 354 11.9 101920 41
2012-06-14 05:34:03 51°20.604 2°51.663 -999 1 11.9 101920 41
2012-06-14 05:34:08 51°20.62 2°51.664 -999 3 12 101920 41
2012-06-14 05:34:13 51°20.636 2°51.664 -999 2 12 101920 41
2012-06-14 05:34:18 51°20.651 2°51.665 -999 3 12 101920 40
2012-06-14 05:34:23 51°20.667 2°51.665 -999 355 12 101920 40
2012-06-14 05:34:27 51°20.679 2°51.665 -999 359 12 101900 41
2012-06-14 05:34:33 51°20.699 2°51.665 -999 359 12 101900 41
2012-06-14 05:34:38 51°20.715 2°51.665 -999 354 12 101910 42
2012-06-14 05:34:43 51°20.73 2°51.665 -999 350 12 101910 42
2012-06-14 05:34:47 51°20.742 2°51.664 -999 358 12 101920 41
2012-06-14 05:34:53 51°20.762 2°51.663 -999 357 12 101920 41
2012-06-14 05:34:58 51°20.777 2°51.661 -999 357 12 101910 41
2012-06-14 05:35:03 51°20.793 2°51.66 -999 357 12 101910 41
2012-06-14 05:35:08 51°20.809 2°51.659 -999 4 12 101910 41
2012-06-14 05:35:13 51°20.825 2°51.657 -999 357 12 101910 41
2012-06-14 05:35:18 51°20.841 2°51.654 -999 353 12 101920 41
2012-06-14 05:35:23 51°20.856 2°51.653 -999 -999 12 101920 41
2012-06-14 05:35:27 51°20.869 2°51.651 -999 360 12 101910 41
2012-06-14 05:35:33 51°20.888 2°51.65 -999 2 12 101910 41
2012-06-14 05:35:38 51°20.904 2°51.648 -999 2 12 101920 41
2012-06-14 05:35:43 51°20.92 2°51.647 -999 354 12 101920 41
2012-06-14 05:35:48 51°20.936 2°51.646 -999 359 12 101930 41
2012-06-14 05:35:53 51°20.951 2°51.643 -999 -999 12 101930 41
2012-06-14 05:35:58 51°20.967 2°51.642 -999 359 12 101910 41
2012-06-14 05:36:03 51°20.983 2°51.64 -999 1 12 101910 41
2012-06-14 05:36:08 51°20.999 2°51.638 -999 359 12 101930 41
2012-06-14 05:36:13 51°21.015 2°51.636 -999 356 12 101930 41
2012-06-14 05:36:18 51°21.031 2°51.635 -999 360 12 101920 41
2012-06-14 05:36:23 51°21.047 2°51.634 -999 356 12 101920 41
2012-06-14 05:36:28 51°21.063 2°51.633 -999 355 12 101920 40
2012-06-14 05:36:33 51°21.079 2°51.632 -999 358 12 101920 40
2012-06-14 05:36:38 51°21.095 2°51.631 -999 353 12 101910 41
2012-06-14 05:36:43 51°21.111 2°51.63 -999 357 12 101910 41
2012-06-14 05:36:47 51°21.124 2°51.629 -999 355 12 101920 41
2012-06-14 05:36:53 51°21.143 2°51.628 -999 353 12 101920 41
2012-06-14 05:36:58 51°21.159 2°51.627 -999 352 12 101910 39
2012-06-14 05:37:03 51°21.175 2°51.627 -999 353 12 101910 39
2012-06-14 05:37:08 51°21.19 2°51.627 -999 356 12 101910 40
2012-06-14 05:37:13 51°21.207 2°51.628 -999 355 12 101910 40
2012-06-14 05:37:18 51°21.222 2°51.628 -999 355 12 101910 40
2012-06-14 05:37:23 51°21.239 2°51.629 -999 350 12 101910 40
2012-06-14 05:37:28 51°21.255 2°51.63 -999 352 12 101910 40
2012-06-14 05:37:33 51°21.271 2°51.632 -999 350 12 101910 40
2012-06-14 05:37:38 51°21.287 2°51.632 -999 350 12 101920 41
2012-06-14 05:37:43 51°21.303 2°51.634 -999 351 12 101920 41
2012-06-14 05:37:48 51°21.319 2°51.634 -999 353 12 101900 40
2012-06-14 05:37:53 51°21.335 2°51.635 -999 357 12 101900 40
2012-06-14 05:37:58 51°21.352 2°51.635 -999 354 11.9 101920 40
2012-06-14 05:38:03 51°21.368 2°51.635 -999 357 11.9 101920 40
2012-06-14 05:38:08 51°21.384 2°51.635 -999 357 11.9 101920 40
2012-06-14 05:38:13 51°21.4 2°51.635 -999 354 11.9 101920 40
2012-06-14 05:38:18 51°21.416 2°51.634 -999 354 11.9 101910 40
2012-06-14 05:38:23 51°21.433 2°51.634 -999 357 11.9 101910 40
2012-06-14 05:38:28 51°21.45 2°51.633 -999 355 12 101900 40
2012-06-14 05:38:33 51°21.466 2°51.633 -999 354 12 101900 40
2012-06-14 05:38:38 51°21.482 2°51.632 -999 355 12 101920 40
2012-06-14 05:38:43 51°21.498 2°51.63 -999 355 12 101920 40
2012-06-14 05:38:48 51°21.515 2°51.629 -999 355 11.9 101910 40
2012-06-14 05:38:53 51°21.531 2°51.627 -999 353 11.9 101910 40
2012-06-14 05:38:58 51°21.547 2°51.626 -999 352 11.9 101910 40
2012-06-14 05:39:03 51°21.564 2°51.623 -999 354 11.9 101910 40
2012-06-14 05:39:07 51°21.577 2°51.622 -999 352 12 101910 40
2012-06-14 05:39:13 51°21.596 2°51.62 -999 353 12 101910 40
2012-06-14 05:39:18 51°21.613 2°51.618 -999 354 12 101920 40
2012-06-14 05:39:23 51°21.629 2°51.616 -999 354 12 101920 40
2012-06-14 05:39:27 51°21.642 2°51.614 -999 351 12 101910 40
2012-06-14 05:39:33 51°21.662 2°51.612 -999 352 12 101910 40
2012-06-14 05:39:38 51°21.678 2°51.611 -999 357 11.9 101920 38
2012-06-14 05:39:43 51°21.694 2°51.61 -999 355 11.9 101920 38
2012-06-14 05:39:48 51°21.711 2°51.609 -999 356 11.9 101920 40
2012-06-14 05:39:53 51°21.727 2°51.608 -999 354 11.9 101920 40
2012-06-14 05:39:58 51°21.744 2°51.607 -999 355 11.9 101920 39
2012-06-14 05:40:03 51°21.76 2°51.606 -999 351 11.9 101920 39
2012-06-14 05:40:08 51°21.776 2°51.606 -999 352 12 101910 40
2012-06-14 05:40:13 51°21.793 2°51.605 -999 352 12 101910 40
2012-06-14 05:40:18 51°21.81 2°51.606 -999 352 12 101920 41
2012-06-14 05:40:23 51°21.827 2°51.607 -999 350 12 101920 41
2012-06-14 05:40:28 51°21.843 2°51.608 -999 351 12 101910 41
2012-06-14 05:40:33 51°21.859 2°51.61 -999 350 12 101910 41
2012-06-14 05:40:38 51°21.876 2°51.611 -999 352 12 101910 40
2012-06-14 05:40:43 51°21.892 2°51.614 -999 352 12 101910 40
2012-06-14 05:40:48 51°21.908 2°51.615 -999 354 11.9 101910 40
2012-06-14 05:40:53 51°21.924 2°51.618 -999 355 11.9 101910 40
2012-06-14 05:40:58 51°21.941 2°51.618 -999 355 11.9 101910 40
2012-06-14 05:41:03 51°21.958 2°51.62 -999 352 11.9 101910 40
2012-06-14 05:41:08 51°21.974 2°51.621 -999 353 11.9 101910 40
2012-06-14 05:41:13 51°21.99 2°51.622 -999 357 11.9 101910 40
2012-06-14 05:41:18 51°22.007 2°51.624 -999 358 11.9 101910 40
2012-06-14 05:41:23 51°22.023 2°51.625 -999 356 11.9 101910 40
2012-06-14 05:41:27 51°22.036 2°51.626 -999 356 12 101910 41
2012-06-14 05:41:33 51°22.056 2°51.627 -999 357 12 101910 41
2012-06-14 05:41:38 51°22.073 2°51.628 -999 357 12 101910 40
2012-06-14 05:41:43 51°22.089 2°51.629 -999 357 12 101910 40
2012-06-14 05:41:48 51°22.106 2°51.63 -999 357 12 101910 40
2012-06-14 05:41:53 51°22.122 2°51.63 -999 355 12 101910 40
2012-06-14 05:41:58 51°22.139 2°51.629 -999 354 11.9 101910 40
2012-06-14 05:42:03 51°22.155 2°51.628 -999 356 11.9 101910 40
2012-06-14 05:42:07 51°22.168 2°51.627 -999 353 12 101910 41
2012-06-14 05:42:13 51°22.188 2°51.625 -999 355 12 101910 41
2012-06-14 05:42:18 51°22.204 2°51.624 -999 354 11.9 101920 39
2012-06-14 05:42:23 51°22.22 2°51.621 -999 356 11.9 101920 39
2012-06-14 05:42:28 51°22.237 2°51.619 -999 357 11.9 101920 41
2012-06-14 05:42:33 51°22.253 2°51.616 -999 358 11.9 101920 41
2012-06-14 05:42:38 51°22.269 2°51.613 -999 357 12 101910 41
2012-06-14 05:42:43 51°22.286 2°51.611 -999 355 12 101910 41
2012-06-14 05:42:48 51°22.302 2°51.608 -999 358 12 101910 41
2012-06-14 05:42:53 51°22.318 2°51.605 -999 359 12 101910 41
2012-06-14 05:42:58 51°22.335 2°51.602 -999 353 12 101910 41
2012-06-14 05:43:03 51°22.351 2°51.601 -999 357 12 101910 41
2012-06-14 05:43:08 51°22.367 2°51.599 -999 355 12 101920 41
2012-06-14 05:43:13 51°22.384 2°51.598 -999 352 12 101920 41
2012-06-14 05:43:18 51°22.4 2°51.597 -999 357 12 101920 41
2012-06-14 05:43:23 51°22.416 2°51.597 -999 353 12 101920 41
2012-06-14 05:43:27 51°22.429 2°51.597 -999 352 12 101920 41
2012-06-14 05:43:33 51°22.449 2°51.597 -999 355 12 101920 41
2012-06-14 05:43:38 51°22.465 2°51.598 -999 356 12 101930 42
2012-06-14 05:43:43 51°22.481 2°51.598 -999 355 12 101930 42
2012-06-14 05:43:48 51°22.497 2°51.598 -999 354 12 101910 41
2012-06-14 05:43:53 51°22.513 2°51.597 -999 357 12 101910 41
2012-06-14 05:43:58 51°22.53 2°51.597 -999 354 12 101920 41
2012-06-14 05:44:03 51°22.547 2°51.597 -999 356 12 101920 41
2012-06-14 05:44:08 51°22.563 2°51.596 -999 357 12 101920 41
2012-06-14 05:44:13 51°22.579 2°51.594 -999 358 12 101920 41
2012-06-14 05:44:18 51°22.595 2°51.592 -999 359 12 101910 41
2012-06-14 05:44:23 51°22.611 2°51.59 -999 358 12 101910 41
2012-06-14 05:44:28 51°22.628 2°51.588 -999 355 12 101920 40
2012-06-14 05:44:33 51°22.644 2°51.585 -999 356 12 101920 40
2012-06-14 05:44:38 51°22.66 2°51.583 -999 356 12 101920 41
2012-06-14 05:44:43 51°22.676 2°51.58 -999 358 12 101920 41
2012-06-14 05:44:48 51°22.692 2°51.578 -999 352 12 101930 41
2012-06-14 05:44:53 51°22.708 2°51.576 -999 351 12 101930 41
2012-06-14 05:44:58 51°22.724 2°51.573 -999 353 12 101920 39
2012-06-14 05:45:03 51°22.74 2°51.572 -999 354 12 101920 39
2012-06-14 05:45:08 51°22.756 2°51.569 -999 352 12 101930 41
2012-06-14 05:45:13 51°22.772 2°51.567 -999 354 12 101930 41
2012-06-14 05:45:18 51°22.789 2°51.566 -999 353 12 101920 41
2012-06-14 05:45:23 51°22.805 2°51.564 -999 357 12 101920 41
2012-06-14 05:45:27 51°22.818 2°51.562 -999 355 12 101910 41
2012-06-14 05:45:33 51°22.837 2°51.56 -999 356 12 101910 41
2012-06-14 05:45:38 51°22.853 2°51.559 -999 354 12 101920 41
2012-06-14 05:45:43 51°22.869 2°51.558 -999 357 12 101920 41
2012-06-14 05:45:47 51°22.883 2°51.558 -999 357 12 101910 41
2012-06-14 05:45:53 51°22.902 2°51.557 -999 356 12 101910 41
2012-06-14 05:45:58 51°22.918 2°51.557 -999 357 12 101920 41
2012-06-14 05:46:03 51°22.934 2°51.557 -999 354 12 101920 41
2012-06-14 05:46:08 51°22.95 2°51.557 -999 358 12 101910 40
2012-06-14 05:46:13 51°22.966 2°51.557 -999 357 12 101910 40
2012-06-14 05:46:18 51°22.983 2°51.558 -999 358 12 101920 41